• In Italy
  • List of Countries
  • For 7 days
  • Water Temperature
  • Satellite Maps
  • Weather Map
  • Weather Widgets
  • user-avatar
    Login

    Hourly Weather Naftalan

    Today, 20 September, Wednesday

    Time Temperature Precipitation Wind Pressure Humidity
    00:00 +26°C° 0 mm 4 mps 764 mmHg 67%
    01:00 +26°C° 0 mm 4 mps 763 mmHg 67%
    02:00 +26°C° 0 mm 3 mps 763 mmHg 68%
    03:00 +26°C° 0 mm 3 mps 763 mmHg 67%
    04:00 +26°C° 0 mm 3 mps 763 mmHg 67%
    05:00 +25°C° 0 mm 3 mps 763 mmHg 67%
    06:00 +25°C° 0 mm 3 mps 764 mmHg 66%
    07:00 +27°C° 0 mm 3 mps 764 mmHg 58%
    08:00 +30°C° 0 mm 2 mps 764 mmHg 49%
    09:00 +32°C° 0 mm 2 mps 764 mmHg 41%
    10:00 +34°C° 0 mm 2 mps 763 mmHg 36%
    11:00 +35°C° 0 mm 3 mps 763 mmHg 30%
    12:00 +36°C° 0 mm 3 mps 763 mmHg 25%
    13:00 +36°C° 0 mm 3 mps 763 mmHg 24%
    14:00 +36°C° 0 mm 4 mps 763 mmHg 23%
    15:00 +37°C° 0 mm 4 mps 762 mmHg 22%
    16:00 +34°C° 0 mm 4 mps 762 mmHg 29%
    17:00 +32°C° 0 mm 4 mps 762 mmHg 36%
    18:00 +29°C° 0 mm 4 mps 762 mmHg 44%
    19:00 +28°C° 0 mm 3 mps 762 mmHg 50%
    20:00 +28°C° 0 mm 3 mps 762 mmHg 55%
    21:00 +27°C° 0 mm 3 mps 763 mmHg 61%
    22:00 +26°C° 0 mm 2 mps 762 mmHg 63%
    23:00 +26°C° 0 mm 2 mps 762 mmHg 64%

    Tomorrow, 21 September, Thursday

    Time Temperature Precipitation Wind Pressure Humidity
    00:00 +26°C° 0 mm 2 mps 762 mmHg 65%
    01:00 +25°C° 0 mm 2 mps 762 mmHg 66%
    02:00 +25°C° 0 mm 1 mps 762 mmHg 67%
    03:00 +25°C° 0 mm 1 mps 762 mmHg 68%
    04:00 +25°C° 0 mm 1 mps 762 mmHg 69%
    05:00 +24°C° 0 mm 1 mps 762 mmHg 69%
    06:00 +22°C° 0 mm 0 mps 763 mmHg 69%
    07:00 +25°C° 0 mm 0 mps 763 mmHg 60%
    08:00 +27°C° 0 mm 0 mps 763 mmHg 51%
    09:00 +31°C° 0 mm 1 mps 763 mmHg 42%
    10:00 +32°C° 0 mm 1 mps 762 mmHg 37%
    11:00 +35°C° 0 mm 2 mps 762 mmHg 32%
    12:00 +36°C° 0 mm 2 mps 762 mmHg 27%
    13:00 +36°C° 0 mm 3 mps 762 mmHg 26%
    14:00 +36°C° 0 mm 4 mps 761 mmHg 25%
    15:00 +37°C° 0 mm 5 mps 761 mmHg 24%
    16:00 +35°C° 0 mm 4 mps 761 mmHg 30%
    17:00 +33°C° 0 mm 4 mps 761 mmHg 35%
    18:00 +29°C° 0 mm 4 mps 761 mmHg 41%
    19:00 +29°C° 0 mm 4 mps 761 mmHg 47%
    20:00 +28°C° 0 mm 4 mps 761 mmHg 53%
    21:00 +27°C° 0 mm 3 mps 762 mmHg 59%
    22:00 +27°C° 0 mm 3 mps 762 mmHg 61%
    23:00 +26°C° 0 mm 2 mps 762 mmHg 63%

    Day after tomorrow, 22 September, Friday

    Time Temperature Precipitation Wind Pressure Humidity
    00:00 +26°C° 0 mm 2 mps 761 mmHg 65%
    01:00 +26°C° 0 mm 2 mps 761 mmHg 67%
    02:00 +25°C° 0 mm 2 mps 761 mmHg 68%
    03:00 +25°C° 0 mm 2 mps 761 mmHg 70%
    04:00 +25°C° 0 mm 1 mps 761 mmHg 71%
    05:00 +24°C° 0 mm 1 mps 761 mmHg 71%
    06:00 +24°C° 0 mm 1 mps 762 mmHg 72%
    07:00 +27°C° 0 mm 1 mps 762 mmHg 62%
    08:00 +29°C° 0 mm 1 mps 762 mmHg 52%
    09:00 +31°C° 0 mm 1 mps 762 mmHg 42%
    10:00 +32°C° 0 mm 1 mps 761 mmHg 35%
    11:00 +35°C° 0 mm 2 mps 761 mmHg 29%
    12:00 +36°C° 0 mm 3 mps 761 mmHg 22%
    13:00 +36°C° 0 mm 4 mps 760 mmHg 22%
    14:00 +36°C° 0 mm 4 mps 760 mmHg 21%
    15:00 +36°C° 0 mm 5 mps 760 mmHg 21%
    16:00 +34°C° 0 mm 5 mps 760 mmHg 30%
    17:00 +32°C° 0 mm 5 mps 760 mmHg 38%
    18:00 +29°C° 0 mm 5 mps 760 mmHg 47%
    19:00 +28°C° 0 mm 4 mps 760 mmHg 53%
    20:00 +28°C° 0 mm 4 mps 761 mmHg 60%
    21:00 +27°C° 0 mm 3 mps 761 mmHg 67%
    22:00 +27°C° 0 mm 3 mps 761 mmHg 68%
    23:00 +27°C° 0 mm 2 mps 761 mmHg 69%

    23 September, Saturday

    Time Temperature Precipitation Wind Pressure Humidity
    00:00 +26°C° 0 mm 2 mps 761 mmHg 70%
    01:00 +26°C° 0 mm 2 mps 761 mmHg 70%
    02:00 +26°C° 0 mm 2 mps 761 mmHg 70%
    03:00 +26°C° 0 mm 2 mps 761 mmHg 69%
    04:00 +26°C° 0 mm 2 mps 761 mmHg 68%
    05:00 +25°C° 0 mm 2 mps 762 mmHg 67%
    06:00 +25°C° 0 mm 2 mps 762 mmHg 66%
    07:00 +27°C° 0 mm 2 mps 762 mmHg 57%
    08:00 +29°C° 0 mm 2 mps 763 mmHg 48%
    09:00 +31°C° 0 mm 2 mps 763 mmHg 40%
    10:00 +32°C° 0 mm 2 mps 763 mmHg 34%
    11:00 +35°C° 0 mm 3 mps 763 mmHg 28%
    12:00 +36°C° 0 mm 3 mps 762 mmHg 21%
    13:00 +36°C° 0 mm 4 mps 762 mmHg 22%
    14:00 +36°C° 0 mm 5 mps 762 mmHg 22%
    15:00 +36°C° 0 mm 5 mps 762 mmHg 22%
    16:00 +34°C° 0 mm 5 mps 762 mmHg 31%
    17:00 +32°C° 0 mm 5 mps 763 mmHg 40%
    18:00 +29°C° 0 mm 4 mps 763 mmHg 50%
    19:00 +28°C° 0 mm 4 mps 763 mmHg 54%
    20:00 +28°C° 0 mm 3 mps 764 mmHg 59%
    21:00 +27°C° 0 mm 2 mps 764 mmHg 64%
    22:00 +27°C° 0 mm 2 mps 764 mmHg 63%
    23:00 +26°C° 0 mm 2 mps 764 mmHg 62%

    24 September, Sunday

    Time Temperature Precipitation Wind Pressure Humidity
    00:00 +26°C° 0 mm 2 mps 764 mmHg 61%
    01:00 +26°C° 0 mm 2 mps 764 mmHg 59%
    02:00 +25°C° 0 mm 2 mps 764 mmHg 57%
    03:00 +25°C° 0 mm 3 mps 764 mmHg 54%
    04:00 +25°C° 0 mm 3 mps 765 mmHg 53%
    05:00 +24°C° 0 mm 3 mps 765 mmHg 53%
    06:00 +24°C° 0 mm 3 mps 765 mmHg 52%
    07:00 +26°C° 0 mm 3 mps 766 mmHg 45%
    08:00 +29°C° 0 mm 3 mps 766 mmHg 38%
    09:00 +31°C° 0 mm 3 mps 766 mmHg 32%
    10:00 +33°C° 0 mm 3 mps 766 mmHg 28%
    11:00 +35°C° 0 mm 4 mps 766 mmHg 25%
    12:00 +36°C° 0 mm 4 mps 766 mmHg 21%
    13:00 +36°C° 0 mm 5 mps 766 mmHg 23%
    14:00 +35°C° 0 mm 6 mps 766 mmHg 25%
    15:00 +35°C° 0 mm 7 mps 765 mmHg 27%
    16:00 +33°C° 0 mm 6 mps 766 mmHg 35%
    17:00 +30°C° 0 mm 5 mps 766 mmHg 43%
    18:00 +28°C° 0 mm 4 mps 766 mmHg 51%
    19:00 +27°C° 0 mm 3 mps 767 mmHg 53%
    20:00 +27°C° 0 mm 3 mps 767 mmHg 56%
    21:00 +26°C° 0 mm 3 mps 767 mmHg 58%
    22:00 +25°C° 0 mm 3 mps 767 mmHg 59%
    23:00 +25°C° 0 mm 3 mps 767 mmHg 60%

    25 September, Monday

    Time Temperature Precipitation Wind Pressure Humidity
    00:00 +25°C° 0 mm 3 mps 767 mmHg 60%
    01:00 +25°C° 0 mm 3 mps 767 mmHg 61%
    02:00 +25°C° 0 mm 3 mps 767 mmHg 61%
    03:00 +25°C° 0 mm 4 mps 767 mmHg 62%
    04:00 +24°C° 0 mm 3 mps 767 mmHg 61%
    05:00 +24°C° 0 mm 3 mps 767 mmHg 61%
    06:00 +24°C° 0 mm 3 mps 767 mmHg 61%
    07:00 +26°C° 0 mm 3 mps 767 mmHg 55%
    08:00 +28°C° 0 mm 3 mps 768 mmHg 48%
    09:00 +30°C° 0 mm 3 mps 768 mmHg 42%
    10:00 +32°C° 0 mm 4 mps 768 mmHg 38%
    11:00 +33°C° 0 mm 4 mps 768 mmHg 34%
    12:00 +34°C° 0 mm 5 mps 767 mmHg 30%
    13:00 +33°C° 0 mm 5 mps 767 mmHg 31%
    14:00 +33°C° 0 mm 6 mps 767 mmHg 32%
    15:00 +33°C° 0 mm 6 mps 767 mmHg 33%
    16:00 +30°C° 0 mm 6 mps 767 mmHg 40%
    17:00 +28°C° 0 mm 5 mps 768 mmHg 46%
    18:00 +26°C° 0 mm 5 mps 768 mmHg 53%
    19:00 +26°C° 0 mm 5 mps 768 mmHg 54%
    20:00 +25°C° 0 mm 4 mps 769 mmHg 56%
    21:00 +25°C° 0 mm 4 mps 769 mmHg 58%
    22:00 +25°C° 0 mm 4 mps 769 mmHg 57%
    23:00 +24°C° 0 mm 3 mps 769 mmHg 57%
    Show more